EN

Hourly Weather Almudevar

Today, 27 January, Wednesday

Time Temperature Precipitation Wind Pressure Humidity
00:00 +7°C° 0 mm 2 mps 726 mmHg 87%
01:00 +8°C° 0 mm 2 mps 726 mmHg 88%
02:00 +8°C° 0 mm 3 mps 726 mmHg 90%
03:00 +8°C° 0 mm 3 mps 726 mmHg 91%
04:00 +8°C° 0.2 mm 3 mps 726 mmHg 92%
05:00 +8°C° 0.2 mm 4 mps 726 mmHg 92%
06:00 +10°C° 0.2 mm 4 mps 726 mmHg 93%
07:00 +9°C° 0 mm 5 mps 726 mmHg 92%
08:00 +10°C° 0 mm 5 mps 727 mmHg 90%
09:00 +10°C° 0 mm 5 mps 727 mmHg 89%
10:00 +11°C° 0 mm 6 mps 727 mmHg 85%
11:00 +12°C° 0 mm 7 mps 728 mmHg 81%
12:00 +15°C° 0 mm 8 mps 728 mmHg 77%
13:00 +15°C° 0 mm 8 mps 728 mmHg 75%
14:00 +15°C° 0 mm 8 mps 727 mmHg 73%
15:00 +15°C° 0 mm 8 mps 727 mmHg 71%
16:00 +14°C° 0 mm 7 mps 727 mmHg 76%
17:00 +13°C° 0 mm 6 mps 728 mmHg 81%
18:00 +11°C° 0 mm 6 mps 728 mmHg 86%
19:00 +12°C° 0 mm 5 mps 728 mmHg 87%
20:00 +10°C° 0 mm 5 mps 728 mmHg 88%
21:00 +11°C° 0 mm 4 mps 728 mmHg 89%
22:00 +10°C° 0 mm 4 mps 728 mmHg 90%
23:00 +10°C° 0 mm 4 mps 729 mmHg 90%

Tomorrow, 28 January, Thursday

Time Temperature Precipitation Wind Pressure Humidity
00:00 +10°C° 0 mm 3 mps 729 mmHg 91%
01:00 +10°C° 0 mm 3 mps 728 mmHg 91%
02:00 +9°C° 0 mm 3 mps 728 mmHg 90%
03:00 +9°C° 0 mm 2 mps 728 mmHg 90%
04:00 +9°C° 0 mm 2 mps 728 mmHg 90%
05:00 +9°C° 0 mm 2 mps 728 mmHg 90%
06:00 +9°C° 0 mm 2 mps 727 mmHg 90%
07:00 +10°C° 0 mm 2 mps 727 mmHg 88%
08:00 +10°C° 0 mm 2 mps 728 mmHg 87%
09:00 +12°C° 0 mm 2 mps 728 mmHg 85%
10:00 +14°C° 0 mm 2 mps 728 mmHg 79%
11:00 +15°C° 0 mm 2 mps 728 mmHg 73%
12:00 +17°C° 0 mm 3 mps 727 mmHg 67%
13:00 +17°C° 0 mm 3 mps 727 mmHg 64%
14:00 +18°C° 0 mm 3 mps 727 mmHg 62%
15:00 +18°C° 0 mm 3 mps 726 mmHg 60%
16:00 +17°C° 0 mm 2 mps 726 mmHg 66%
17:00 +15°C° 0 mm 2 mps 726 mmHg 72%
18:00 +13°C° 0 mm 1 mps 726 mmHg 79%
19:00 +13°C° 0 mm 1 mps 726 mmHg 79%
20:00 +13°C° 0 mm 1 mps 725 mmHg 80%
21:00 +13°C° 0 mm 1 mps 725 mmHg 81%
22:00 +12°C° 0 mm 1 mps 725 mmHg 81%
23:00 +12°C° 0 mm 1 mps 725 mmHg 82%

Day after tomorrow, 29 January, Friday

Time Temperature Precipitation Wind Pressure Humidity
00:00 +12°C° 0 mm 1 mps 725 mmHg 83%
01:00 +12°C° 0 mm 1 mps 725 mmHg 83%
02:00 +12°C° 0 mm 1 mps 725 mmHg 83%
03:00 +11°C° 0 mm 1 mps 724 mmHg 84%
04:00 +10°C° 0 mm 2 mps 725 mmHg 84%
05:00 +10°C° 0 mm 2 mps 725 mmHg 85%
06:00 +10°C° 0 mm 2 mps 725 mmHg 85%
07:00 +11°C° 0 mm 3 mps 725 mmHg 83%
08:00 +11°C° 0 mm 3 mps 725 mmHg 80%
09:00 +12°C° 0 mm 3 mps 725 mmHg 78%
10:00 +14°C° 0 mm 4 mps 725 mmHg 71%
11:00 +15°C° 0 mm 5 mps 725 mmHg 65%
12:00 +17°C° 0 mm 6 mps 725 mmHg 59%
13:00 +17°C° 0 mm 6 mps 725 mmHg 58%
14:00 +17°C° 0 mm 6 mps 724 mmHg 58%
15:00 +17°C° 0 mm 5 mps 724 mmHg 57%
16:00 +15°C° 0 mm 4 mps 723 mmHg 64%
17:00 +14°C° 0 mm 3 mps 723 mmHg 71%
18:00 +13°C° 0 mm 2 mps 723 mmHg 78%
19:00 +13°C° 0 mm 2 mps 723 mmHg 79%
20:00 +12°C° 0 mm 2 mps 722 mmHg 80%
21:00 +12°C° 0 mm 1 mps 722 mmHg 81%
22:00 +12°C° 0 mm 2 mps 721 mmHg 81%
23:00 +12°C° 0 mm 2 mps 721 mmHg 81%

30 January, Saturday

Time Temperature Precipitation Wind Pressure Humidity
00:00 +11°C° 0 mm 3 mps 720 mmHg 81%
01:00 +11°C° 0 mm 3 mps 719 mmHg 82%
02:00 +10°C° 0 mm 3 mps 719 mmHg 83%
03:00 +10°C° 0 mm 3 mps 718 mmHg 85%
04:00 +10°C° 0.2 mm 3 mps 718 mmHg 84%
05:00 +10°C° 0.2 mm 3 mps 717 mmHg 83%
06:00 +10°C° 0.2 mm 3 mps 716 mmHg 81%
07:00 +10°C° 0.1 mm 4 mps 716 mmHg 75%
08:00 +9°C° 0.1 mm 6 mps 716 mmHg 69%
09:00 +9°C° 0.1 mm 7 mps 716 mmHg 63%
10:00 +9°C° 0 mm 8 mps 716 mmHg 58%
11:00 +10°C° 0 mm 9 mps 716 mmHg 53%
12:00 +11°C° 0 mm 11 mps 716 mmHg 48%
13:00 +11°C° 0.1 mm 9 mps 715 mmHg 50%
14:00 +10°C° 0.1 mm 8 mps 715 mmHg 52%
15:00 +10°C° 0.1 mm 7 mps 715 mmHg 55%
16:00 +9°C° 0.1 mm 7 mps 714 mmHg 58%
17:00 +9°C° 0.1 mm 7 mps 714 mmHg 62%
18:00 +7°C° 0.1 mm 8 mps 714 mmHg 65%
19:00 +7°C° 1 mm 8 mps 714 mmHg 70%
20:00 +6°C° 1 mm 9 mps 714 mmHg 75%
21:00 +6°C° 1 mm 9 mps 714 mmHg 80%
22:00 +7°C° 1.1 mm 11 mps 714 mmHg 80%
23:00 +7°C° 1.1 mm 12 mps 715 mmHg 80%

31 January, Sunday

Time Temperature Precipitation Wind Pressure Humidity
00:00 +8°C° 1.1 mm 14 mps 715 mmHg 80%
01:00 +8°C° 0.2 mm 14 mps 716 mmHg 79%
02:00 +8°C° 0.2 mm 13 mps 717 mmHg 78%
03:00 +8°C° 0.2 mm 13 mps 718 mmHg 77%
04:00 +7°C° 0 mm 12 mps 718 mmHg 76%
05:00 +7°C° 0 mm 12 mps 719 mmHg 76%
06:00 +7°C° 0 mm 12 mps 719 mmHg 75%
07:00 +7°C° 0 mm 11 mps 720 mmHg 75%
08:00 +8°C° 0 mm 11 mps 720 mmHg 75%
09:00 +8°C° 0 mm 10 mps 721 mmHg 75%
10:00 +9°C° 0 mm 10 mps 721 mmHg 70%
11:00 +11°C° 0 mm 10 mps 721 mmHg 66%
12:00 +12°C° 0 mm 10 mps 721 mmHg 61%
13:00 +12°C° 0 mm 9 mps 721 mmHg 60%
14:00 +12°C° 0 mm 8 mps 720 mmHg 59%
15:00 +14°C° 0 mm 7 mps 720 mmHg 58%
16:00 +12°C° 0 mm 7 mps 720 mmHg 63%
17:00 +11°C° 0 mm 6 mps 721 mmHg 68%
18:00 +10°C° 0 mm 5 mps 721 mmHg 72%
19:00 +9°C° 0 mm 5 mps 721 mmHg 73%
20:00 +10°C° 0 mm 4 mps 721 mmHg 74%
21:00 +10°C° 0 mm 4 mps 721 mmHg 75%
22:00 +10°C° 0 mm 4 mps 721 mmHg 76%
23:00 +8°C° 0 mm 5 mps 722 mmHg 77%

1 February, Monday

Time Temperature Precipitation Wind Pressure Humidity
00:00 +8°C° 0 mm 5 mps 722 mmHg 78%
01:00 +8°C° 0 mm 6 mps 722 mmHg 78%
02:00 +8°C° 0 mm 6 mps 722 mmHg 77%
03:00 +8°C° 0 mm 6 mps 722 mmHg 77%
04:00 +8°C° 0 mm 7 mps 723 mmHg 77%
05:00 +8°C° 0 mm 7 mps 723 mmHg 76%
06:00 +8°C° 0 mm 7 mps 724 mmHg 76%
07:00 +8°C° 0 mm 7 mps 724 mmHg 75%
08:00 +9°C° 0 mm 6 mps 725 mmHg 73%
09:00 +9°C° 0 mm 6 mps 725 mmHg 71%
10:00 +10°C° 0 mm 7 mps 725 mmHg 67%
11:00 +12°C° 0 mm 7 mps 725 mmHg 62%
12:00 +13°C° 0 mm 8 mps 725 mmHg 57%
13:00 +14°C° 0 mm 7 mps 725 mmHg 56%
14:00 +14°C° 0 mm 7 mps 724 mmHg 56%
15:00 +15°C° 0 mm 6 mps 724 mmHg 55%
16:00 +13°C° 0 mm 5 mps 724 mmHg 60%
17:00 +12°C° 0 mm 4 mps 724 mmHg 66%
18:00 +10°C° 0 mm 3 mps 724 mmHg 71%
19:00 +10°C° 0 mm 3 mps 725 mmHg 72%
20:00 +10°C° 0 mm 3 mps 725 mmHg 72%
21:00 +10°C° 0 mm 2 mps 725 mmHg 72%
22:00 +9°C° 0 mm 2 mps 725 mmHg 73%
23:00 +9°C° 0 mm 3 mps 725 mmHg 74%
Show more